Regional Weather Roundup
Issued by NWS

Home | Current Version | Previous Version | Graphics & Text | Print | Product List | Glossary On
Versions: 1 2 3 4 5 6 7 8 9 10 11 12 13 14 15 16 17 18 19 20 21 22 23 24 25 26 27 28 29 30 31 32 33 34 35 36 37 38 39 40 41 42 43 44 45 46 47 48 49 50
000
ASUS43 KLSX 281459
RWRMO

WEATHER SUMMARY FOR MISSOURI
NATIONAL WEATHER SERVICE SPRINGFIELD MO
1000 AM CDT SUN MAY 28 2017

NOTE: "FAIR" INDICATES FEW OR NO CLOUDS BELOW 12,000 FEET WITH NO
       SIGNIFICANT WEATHER AND/OR OBSTRUCTIONS TO VISIBILITY.
       CURRENT SKY AND/OR WEATHER CONDITIONS ARE NOT AVAILABLE FOR
       CHILLICOTHE AND FARMINGTON.

MOZ001>031-035>038-043-044-053-054-281600-
...NORTHERN AND WESTERN MISSOURI...

CITY           SKY/WX    TMP DP  RH WIND       PRES   REMARKS
KANSAS CTY INT SUNNY     70  57  63 NW9       29.94R
KANSAS C DTWN  SUNNY     71  56  58 NW12G22   29.93R
LEE`S SUMMIT   SUNNY     69  60  73 NW9       29.94R
ST JOSEPH      SUNNY     69  57  65 W9        29.93S
CHILLICOTHE      N/A     71  57  61 NW8       29.91S
KIRKSVILLE     SUNNY     71  55  56 W10       29.88S

$$
MOZ066>068-077>081-088>096-101>105-281600-
...SOUTHWEST MISSOURI...

CITY           SKY/WX    TMP DP  RH WIND       PRES   REMARKS
SPRINGFIELD    CLOUDY    67  61  81 NW8       29.95R
JOPLIN         MOSUNNY   71  61  70 VRB3      29.98R
BRANSON        CLOUDY    66  64  94 NW5       29.95R

$$
MOZ032>034-039>042-045>050-055>058-069>072-281600-
...CENTRAL MISSOURI...

CITY           SKY/WX    TMP DP  RH WIND       PRES   REMARKS
COLUMBIA       MOSUNNY   68  63  84 NW10      29.90R
JEFFERSON CITY CLOUDY    69  62  78 NW7       29.89R
ROLLA          FOG       62 N/A N/A W10       29.89R VSB 1/2
SEDALIA        SUNNY     69  62  78 NW8       29.94R
WARRENSBURG    SUNNY     68  57  68 NW6       29.93S
OSAGE BEACH    CLOUDY    64  62  93 W7        29.92R

$$
MOZ051-052-059>065-281600-
...EAST CENTRAL MISSOURI...

CITY           SKY/WX    TMP DP  RH WIND       PRES   REMARKS
ST LOUIS INTL  CLOUDY    69  62  78 W10       29.84R
SPIRIT OF STL  CLOUDY    64  63  96 W12       29.85R
ST CHARLES     CLOUDY    66  64  93 W13       29.83R

$$
MOZ072>076-082>087-097>100-106>115-281600-
...SOUTH CENTRAL AND SOUTHEAST MISSOURI...

CITY           SKY/WX    TMP DP  RH WIND       PRES   REMARKS
CAPE GIRARDEAU CLOUDY    66  62  87 W15       29.88S
FARMINGTON     CLOUDY    67  62  84 W10       29.88S
POPLAR BLUFF   CLOUDY    68  64  87 W9          N/A
WEST PLAINS    CLOUDY    65  63  93 SW9       29.92F

$$




USA.gov is the U.S. government's official web portal to all federal, state and local government web resources and services.